F3825 Weather Reports


time (UTC)temp
C
wind
direction
speed
KPH
gust
KPH
rain 1hr
cm
rain 24hr
cm
rain mn
cm
humidity
%
barometer
mb
20260508005250 17 273 0.0 9.7 0.00 0.00 0.00 69 1011.9
20260508004314 17 248 0.0 9.7 0.00 0.00 0.00 69 1012.1
20260508002143 18 257 0.0 9.7 0.00 0.00 0.00 68 1012.4
20260508001146 18 248 0.0 9.7 0.00 0.00 0.00 67 1012.7
20260508000136 18 236 0.0 3.2 0.00 0.00 0.00 67 1013.0
20260507235101 18 260 0.0 1.6 0.00 0.00 0.00 66 1013.0
20260507234056 18 187 0.0 4.8 0.00 0.00 0.00 66 1013.1
20260507233115 18 252 0.0 3.2 0.00 0.00 0.00 66 1013.0
20260507232109 18 240 0.0 8.0 0.00 0.00 0.00 65 1012.6
20260507231055 18 217 1.6 9.7 0.00 0.00 0.00 65 1013.2
20260507230117 18 152 0.0 6.4 0.00 0.00 0.00 65 1013.0
20260507225105 18 247 0.0 8.0 0.00 0.00 0.00 64 1012.8
20260507224039 18 253 0.0 8.0 0.00 0.00 0.00 64 1013.1
20260507221923 18 184 1.6 19.3 0.00 0.00 0.00 65 1013.6
20260507220942 18 150 3.2 14.5 0.00 0.00 0.00 64 1013.4
20260507213554 19 193 4.8 19.3 0.00 0.00 0.00 66 1013.5
20260507212549 19 268 1.6 14.5 0.00 0.00 0.00 66 1013.1
20260507211554 18 260 1.6 12.9 0.00 0.00 0.00 68 1013.1
20260507210533 18 0 1.6 9.7 0.00 0.00 0.00 68 1013.4
20260507205557 18 192 1.6 14.5 0.00 0.00 0.00 67 1013.8
20260507204524 18 150 1.6 14.5 0.00 0.00 0.00 68 1014.2
20260507203527 18 219 3.2 14.5 0.00 0.00 0.00 68 1014.3
20260507202521 18 194 1.6 16.1 0.00 0.00 0.00 69 1014.3
20260507201451 18 155 3.2 16.1 0.00 0.00 0.00 68 1014.0
20260507200427 17 223 1.6 16.1 0.00 0.00 0.00 69 1014.5
20260507195444 17 19 3.2 16.1 0.00 0.00 0.00 68 1014.4
20260507194506 17 236 1.6 11.3 0.00 0.00 0.00 68 1014.7
20260507193455 17 248 3.2 16.1 0.00 0.00 0.00 69 1014.7
20260507191345 17 250 0.0 14.5 0.00 0.00 0.00 70 1014.9
20260507190402 17 285 1.6 14.5 0.00 0.00 0.00 70 1014.8
20260507185354 17 267 1.6 12.9 0.00 0.00 0.00 69 1014.9
20260507183312 17 200 1.6 17.7 0.00 0.00 0.00 70 1015.2
20260507182317 17 259 3.2 22.5 0.00 0.00 0.00 71 1014.9
20260507181301 17 289 3.2 22.5 0.00 0.00 0.00 72 1015.3
20260507175215 17 209 1.6 16.1 0.00 0.00 0.00 71 1014.9
20260507174226 16 187 1.6 12.9 0.00 0.00 0.00 72 1015.2
20260507173234 16 288 1.6 9.7 0.00 0.00 0.00 73 1015.2
20260507171115 16 215 3.2 19.3 0.00 0.00 0.00 74 1014.9
20260507170130 16 183 1.6 17.7 0.00 0.00 0.00 75 1015.6
20260507165136 15 270 1.6 16.1 0.00 0.00 0.00 75 1015.5
20260507164106 15 275 3.2 19.3 0.00 0.00 0.00 76 1015.6
20260507163110 15 202 3.2 19.3 0.00 0.00 0.00 76 1016.6
20260507162054 15 134 3.2 17.7 0.00 0.00 0.00 76 1016.9
20260507161036 15 199 1.6 14.5 0.00 0.00 0.00 76 1016.5
20260507160022 15 145 0.0 11.3 0.00 0.00 0.00 76 1016.7
20260507154947 15 167 3.2 19.3 0.00 0.00 0.00 76 1016.4
20260507153946 15 145 3.2 19.3 0.00 0.00 0.00 78 1016.3
20260507152950 15 192 4.8 16.1 0.00 0.00 0.00 79 1016.3
20260507151915 14 203 3.2 14.5 0.00 0.00 0.00 80 1016.1
20260507150851 14 181 4.8 14.5 0.00 0.00 0.00 80 1016.3
20260507144730 14 205 4.8 20.9 0.00 0.00 0.00 80 1016.2
20260507143704 14 126 1.6 19.3 0.00 0.00 0.00 80 1015.8
20260507141638 14 240 3.2 20.9 0.00 0.00 0.00 81 1015.8
20260507140632 14 211 4.8 27.4 0.00 0.00 0.00 81 1015.6
20260507134538 15 190 4.8 22.5 0.00 0.00 0.00 81 1015.3
20260507133542 15 219 4.8 22.5 0.00 0.00 0.00 81 1015.3
20260507132520 15 210 4.8 20.9 0.00 0.00 0.00 83 1015.3
20260507131509 14 191 4.8 25.7 0.00 0.00 0.00 84 1015.4
20260507130459 14 116 4.8 25.7 0.00 0.00 0.00 84 1015.3
20260507125451 14 182 4.8 24.1 0.00 0.00 0.00 84 1015.5
20260507124508 14 235 4.8 22.5 0.00 0.00 0.00 84 1015.2
20260507123449 14 139 3.2 22.5 0.00 0.00 0.00 84 1015.3
20260507122500 14 197 3.2 19.3 0.00 0.00 0.00 85 1014.9
20260507121454 14 187 3.2 22.5 0.00 0.00 0.00 85 1014.7
20260507120422 14 202 3.2 22.5 0.00 0.00 0.00 85 1014.5
20260507114214 14 111 3.2 17.7 0.00 0.00 0.00 85 1014.2
20260507113210 14 213 4.8 20.9 0.00 0.00 0.00 85 1014.1
20260507112137 14 140 6.4 20.9 0.00 0.00 0.00 85 1014.2
20260507111109 14 173 3.2 19.3 0.00 0.00 0.00 85 1014.2
20260507110118 14 178 4.8 19.3 0.00 0.00 0.00 85 1014.3
20260507105129 14 177 4.8 14.5 0.00 0.00 0.00 85 1014.3
20260507104151 14 180 3.2 17.7 0.00 0.00 0.00 84 1014.2
20260507103153 14 211 4.8 17.7 0.00 0.00 0.00 84 1013.5
20260507102149 14 194 4.8 22.5 0.00 0.00 0.00 84 1013.8
20260507101140 14 205 4.8 22.5 0.00 0.00 0.00 84 1013.6
20260507100116 14 198 4.8 16.1 0.00 0.00 0.00 84 1013.5
20260507093936 14 164 1.6 8.0 0.00 0.00 0.00 83 1013.6
20260507092920 14 173 0.0 14.5 0.00 0.00 0.00 83 1013.6
20260507091849 14 185 1.6 14.5 0.00 0.00 0.00 83 1013.7
20260507090857 14 198 0.0 9.7 0.00 0.00 0.00 83 1013.2
20260507085838 14 154 0.0 6.4 0.00 0.00 0.00 83 1013.0
20260507084808 14 166 0.0 1.6 0.00 0.00 0.00 83 1012.7
20260507083735 14 144 0.0 4.8 0.00 0.00 0.00 82 1013.0
20260507082753 14 180 1.6 12.9 0.00 0.00 0.00 82 1012.7
20260507081806 15 205 1.6 12.9 0.00 0.00 0.00 82 1012.4
20260507080829 15 205 0.0 4.8 0.00 0.00 0.00 82 1012.9
20260507075844 15 174 0.0 11.3 0.00 0.00 0.00 81 1012.2
20260507072533 15 221 0.0 6.4 0.00 0.00 0.00 81 1012.3
20260507071554 15 190 0.0 4.8 0.00 0.00 0.00 80 1012.6
20260507070601 15 227 1.6 14.5 0.00 0.00 0.00 80 1012.7
20260507065615 15 161 1.6 14.5 0.00 0.00 0.00 80 1012.5
20260507064555 15 248 0.0 14.5 0.00 0.00 0.00 79 1012.3
20260507063536 15 193 0.0 6.4 0.00 0.00 0.00 79 1012.0
20260507062539 15 177 0.0 17.7 0.00 0.00 0.00 79 1012.5
20260507061539 15 202 1.6 17.7 0.00 0.00 0.00 79 1012.0
20260507060541 16 234 1.6 9.7 0.00 0.00 0.00 79 1012.5
20260507055512 16 162 0.0 9.7 0.00 0.00 0.00 78 1012.5
20260507053337 16 175 0.0 9.7 0.00 0.00 0.00 78 1012.0
20260507051238 16 121 1.6 14.5 0.00 0.00 0.00 78 1012.1
20260507050238 16 217 0.0 14.5 0.00 0.00 0.00 78 1012.3
20260507044116 16 146 1.6 25.7 0.00 0.00 0.00 79 1012.5
20260507041954 16 219 1.6 14.5 0.00 0.00 0.00 79 1012.1
20260507040949 16 183 1.6 9.7 0.00 0.00 0.00 79 1012.5
20260507035923 16 205 3.2 12.9 0.00 0.00 0.00 79 1012.3
20260507034912 16 223 3.2 12.9 0.00 0.00 0.00 79 1012.1
20260507033848 16 152 1.6 8.0 0.00 0.00 0.00 79 1012.2
20260507032908 16 209 1.6 9.7 0.00 0.00 0.00 79 1011.9
20260507030703 16 198 1.6 16.1 0.00 0.00 0.00 79 1012.0
20260507025701 16 130 3.2 16.1 0.00 0.00 0.00 79 1011.6
20260507024702 16 171 1.6 9.7 0.00 0.00 0.00 79 1011.8
20260507023707 16 154 1.6 11.3 0.00 0.00 0.00 79 1011.6
20260507022730 16 174 3.2 22.5 0.00 0.00 0.00 79 1011.3
20260507021740 16 178 4.8 22.5 0.00 0.00 0.00 78 1011.2
20260507020727 16 153 3.2 14.5 0.00 0.00 0.00 78 1011.3
20260507015734 16 134 3.2 14.5 0.00 0.00 0.00 78 1010.9
20260507014743 16 134 3.2 14.5 0.00 0.00 0.00 78 1010.7
20260507012630 16 159 1.6 12.9 0.00 0.00 0.00 78 1010.1
20260507011649 16 175 1.6 12.9 0.00 0.00 0.00 78 1009.9